Regional Weather Roundup
Issued by NWS

Home | Current Version | Previous Version | Text Only | Print | Product List | Glossary Off
Versions: 1 2 3 4 5 6 7 8 9 10 11 12 13 14 15 16 17 18 19 20 21 22 23 24 25 26 27 28 29 30 31 32 33 34 35 36 37 38 39 40 41 42 43 44 45 46 47 48 49 50

000
ASUS43 KDTX 282001
RWRMI
MICHIGAN HOURLY REGIONAL WEATHER ROUNDUP
NATIONAL WEATHER SERVICE DETROIT/PONTIAC MI
400 PM EDT SUN AUG 28 2016

NOTE: "FAIR" INDICATES FEW OR NO CLOUDS BELOW 12,000 FEET WITH NO
SIGNIFICANT WEATHER AND/OR OBSTRUCTION TO VISIBILITY.

MIZ047>049-052>055-059>063-066>070-074>076-081>083-282100-
SOUTHEAST LOWER MICHIGAN

CITY           SKY/WX    TMP DP  RH WIND       PRES   REMARKS
ADRIAN         CLOUDY    74  71  91 SW5       30.20F
ALMA           MOSUNNY   80  68  68 CALM      30.19S
ANN ARBOR      CLOUDY    84  72  67 S6        30.18F
CARO           MOSUNNY   78  69  75 NW8       30.18S
DETROIT CITY   CLOUDY    83  69  62 SW6       30.18S
DETROIT        CLOUDY    79  73  82 S9        30.19S
FLINT          SUNNY     86  68  54 NW8G20    30.18F
GROSSE ILE     LGT RAIN  75  73  94 SW6       30.18S
HILLSDALE      MOSUNNY   83  71  66 CALM      30.20S
HOWELL         SUNNY     83  67  56 W5        30.19R

CITY           SKY/WX    TMP DP  RH WIND       PRES   REMARKS
JACKSON        MOSUNNY   84  69  60 CALM      30.19S
LAMBERTVILLE   LGT RAIN  72  69  91 CALM      30.19F
LANSING        SUNNY     83  67  58 N6        30.20S
LAPEER         FAIR      82  66  57 W8        30.18F
MASON          MOSUNNY   82  68  61 W6        30.19S
MONROE         LGT RAIN  73  71  96 CALM      30.18F
MT. CLEMENS    PTSUNNY   83  74  74 S8        30.16S
PONTIAC        PTSUNNY   84  68  58 W7        30.18S
PORT HURON     PTSUNNY   84  70  61 W3        30.17S
TRI CITIES     MOSUNNY   80  66  62 NE5       30.19F
MIDLAND        FAIR      80  65  59 NW3       30.17F
TROY           CLOUDY    87  66  50 W3        30.19S
SAGINAW HB     MOSUNNY   79  64  61 N3        30.18S
$$
MIZ043>046-050>051-056>058-064>065-071>073-077>080-282100-
SOUTHWEST LOWER MICHIGAN

CITY           SKY/WX    TMP DP  RH WIND       PRES   REMARKS
BATTLE CREEK   SUNNY     82  70  66 SW8       30.21R
BENTON HARBOR  SUNNY     82  68  62 VRB5      30.19F
BIG RAPIDS     MOSUNNY   81  64  55 W6        30.19S
COLDWATER      CLOUDY    81  71  73 NW3       30.20R
FREMONT        FAIR      80  60  51 N5        30.18F
HOLLAND        SUNNY     82  65  56 NW6       30.20S
GRAND RAPIDS   MOSUNNY   83  64  52 CALM      30.19S
IONIA          FAIR      80  63  55 CALM      30.19S
KALAMAZOO      MOSUNNY   84  67  56 CALM      30.19F
LUDINGTON      CLOUDY    73  65  75 NW7       30.19F
MARSHALL       MOSUNNY   86  68  54 CALM      30.19S
MOUNT PLEASANT MOSUNNY   80  66  61 W8        30.18F
MUSKEGON       MOSUNNY   79  66  64 W10       30.20S
SOUTH HAVEN    SUNNY     82  71  68 N6        30.20R
$$
MIZ016>042-282100-
NORTHERN LOWER MICHIGAN

CITY           SKY/WX    TMP DP  RH WIND       PRES   REMARKS
ALPENA         MOSUNNY   83  58  42 W10G17    30.16F
BEAVER ISLAND  SUNNY     74  63  66 W6        30.19F
BELLAIRE       PTSUNNY   76  60  58 W3        30.20S
CADILLAC       SUNNY     78  61  55 N5        30.19F
CHARLEVOIX     MOSUNNY   74  63  69 W8        30.23F
FRANKFORT      SUNNY     74  64  70 W8        30.20F
GAYLORD        MOSUNNY   75  58  55 W7        30.20F
GRAYLING       SUNNY     80  61  52 W8        30.20F
HARBOR SPRINGS PTSUNNY   74  65  74 SW10      30.19F
HOUGHTON LAKE  SUNNY     78  60  53 W9        30.20F
MANISTEE       MOSUNNY   74  65  73 NW12      30.18F
OSCODA         CLOUDY    76  65  69 E7        30.16F
PELLSTON       MOSUNNY   77  59  53 W9        30.19F
ROGERS CITY    SUNNY     73  64  73 N8        30.19S
TRAVERSE CITY  MOSUNNY   78  63  59 NE10      30.18F
$$
MIZ007>008-015-282100-
EASTERN UPPER MICHIGAN

CITY           SKY/WX    TMP DP  RH WIND       PRES   REMARKS
KINROSS        MOSUNNY   72  64  76 N8        30.18F
MACKINAC ISLAN SUNNY     72  68  87 W7        30.18F
NEWBERRY         N/A     74  60  61 W9        30.19F
S. S. MARIE    SUNNY     73  62  68 NW9       30.17S
$$
MIZ004>006-011>014-085-282100-
CENTRAL UPPER MICHIGAN

CITY           SKY/WX    TMP DP  RH WIND       PRES   REMARKS
MANISTIQUE     PTSUNNY   74  64  69 S7        30.19F
ESCANABA       SUNNY     73  64  73 S13       30.18F
MENOMINEE      SUNNY    N/A N/A N/A S8        30.19F
SAWYER-GWINN   SUNNY     72  61  68 NE7       30.21S
$$
MIZ001>003-009>011-084-282100-
WESTERN UPPER MICHIGAN

CITY           SKY/WX    TMP DP  RH WIND       PRES   REMARKS
IRON MOUNTAIN  CLOUDY    80  55  42 NW3       30.18F
HOUGHTON       MOSUNNY   73  58  59 VRB5      30.19S
IRONWOOD       SUNNY     75  60  59 VRB3      30.19F
$$

ABBREVIATIONS USED IN REMARKS
   TC - TEMPERATURE IN CELSIUS
  WCI - WIND CHILL INDEX
   HX - HEAT INDEX
  VSB - VISIBILITY





USA.gov is the U.S. government's official web portal to all federal, state and local government web resources and services.